SCP
0 0 0 0 0 0 0 0 0 0 0 0 0 0 0 0 0 0 0 0 0 0 0 0 0 0 0 0 0 0 0 0 0 0 0 0 0 0 0 0 0 0 0 0 0
0 0 0 0 0 0 0 0 0 0 0 0 0 0 0 0 0 0 0 0 0 0 0 0 0 0 0 0 0 0 0 0 0 0 0 0 0 0 0 0 0 0 0 0 0
0 0 0 0 0 0 0 0 0 0 0 0 0 0 0 0 0 0 0 0 0 0 0 0 0 0 0 0 0 0 0 0 0 0 0 0 0 0 0 0 0 0 0 0 0
0 0 0 0 0 0 0 0 0 0 0 0 0 0 0 0 0 0 0 0 0 0 0 0 0 0 0 0 0 0 0 0 0 0 0 0 0 0 0 0 0 0 0 0 0
0 0 0 0 0 0 0 0 0 0 0 0 0 0 0 0 0 0 0 0 0 0 0 0 0 0 0 0 0 0 0 0 0 0 0 0 0 0 0 0 0 0 0 0 0
0 0 0 0 0 0 0 0 0 0 0 0 0 0 0 0 0 0 0 0 0 0 0 0 0 0 0 0 0 0 0 0 0 0 0 0 0 0 0 0 0 0 0 0 0
0 0 0 0 0 0 0 0 0 0 0 0 0 0 0 0 0 0 0 0 0 0 0 0 0 0 0 0 0 0 0 0 0 0 0 0 0 0 0 0 0 0 0 0 0
0 0 0 0 0 0 0 0 0 0 0 0 0 0 0 0 0 0 0 0 0 0 0 0 0 0 0 0 0 0 0 0 0 0 -0 0 0 0 0 0 0 0 0 0 0
0 0 0 0 0 0 0 0 0 0 0 0 0 0 0 0 0 0 0 0 0 0 0 0 0 0 0 0 0 0 0 0 0 0 0 0 0 0 0 0 0 0 0 0 0
0 0 0 0 0 0 0 0 0 0 0 0 0 0 0 0 0 0 0 0 0 0 0 0 0 0 0 0 0 0 0 0 0 0 0 0 0 0 0 0 0 0 0 0 0
0 0 0 0 0 0 0 0 0 0 0 0 0 0 0 0 0 0 0 0 0 0 0 0 0 0 0 0 0 0 0 0 0 0 0 0 0 0 0 0 0 0 0 0 0
0 0 0 0 0 0 0 0 0 0 0 0 0 0 0 0 0 0 0 0 0 0 0 0 0 0 0 0 0 0 0 0 0 0 0 0 0 0 0 0 0 0 0 0 0
0 0 0 0 0 0 0 0 0 0 0 0 0 0 0 0 0 0 0 0 0 0 0 0 0 0 0 0 0 0 0 0 0 0 0 0 -0 -0 0 0 0 0 0 0 0
0 0 0 0 1 0 0 0 0 0 0 0 0 0 0 0 0 0 0 0 0 0 0 0 0 0 0 0 0 0 0 0 0 0 0 0 0 -0 0 0 0 0 0 0 0
0 0 0 0 0 0 0 0 0 0 0 0 0 0 0 0 0 0 0 0 0 0 0 0 0 0 0 0 0 0 0 0 0 0 0 0 0 -0 0 0 0 0 0 0 0
0 0 0 1 0 0 0 0 0 0 0 0 0 0 0 0 0 0 0 0 0 0 0 0 0 0 0 0 0 0 0 0 0 0 0 0 0 -0 0 0 0 0 0 0 0
0 0 0 0 0 0 0 0 0 0 0 0 0 0 0 0 0 0 0 0 0 0 0 0 0 0 0 0 0 0 0 0 0 0 0 0 0 0 0 0 0 0 0 0 0
0 0 -0 0 0 0 0 0 0 0 0 0 0 0 0 0 0 0 0 0 0 0 0 0 0 0 0 0 0 0 0 0 0 0 0 0 0 0 0 0 0 0 0 0 0
0 0 0 0 0 0 0 0 0 0 0 0 0 0 0 0 0 0 0 0 0 0 0 0 0 0 0 0 0 0 0 0 0 0 0 0 0 0 0 0 0 0 0 0 0
0 0 0 0 0 0 0 0 0 0 0 0 0 0 0 0 0 0 0 0 0 0 0 0 0 0 0 0 0 0 0 0 0 0 0 0 0 0 0 0 0 0 0 0 0
0 0 0 0 0 0 0 0 0 0 0 0 0 0 0 0 0 0 0 0 0 0 0 0 0 0 0 0 0 0 0 0 0 0 0 0 0 0 0 0 0 0 0 0 0
0 0 0 0 0 0 0 0 0 0 0 0 0 0 0 0 0 0 0 0 0 0 0 0 0 0 0 0 0 0 0 0 0 0 0 0 0 0 0 0 0 0 0 0 0
0 0 0 0 0 0 0 0 0 0 0 0 0 0 0 0 0 0 0 0 0 0 0 0 0 0 0 0 0 0 0 0 0 0 0 0 0 0 0 0 0 0 0 0 -0
0 0 0 0 0 0 0 0 0 0 0 0 0 0 0 0 0 0 0 0 0 0 0 0 0 0 0 0 0 0 0 0 0 0 0 0 0 0 0 0 0 0 -0 -0 -0
0 0 0 0 0 0 0 0 0 0 0 0 0 0 0 0 0 0 0 0 0 0 0 0 0 0 0 0 0 0 0 0 0 0 0 0 0 0 0 0 0 0 0 0 -0
0 0 0 0 0 0 0 0 0 0 0 0 0 0 0 0 0 0 0 0 0 0 0 0 0 0 0 0 0 0 0 0 0 0 0 0 0 -0 0 0 0 0 0 -0 -0
0 0 0 0 0 0 0 0 0 0 0 0 0 0 0 0 0 0 0 0 0 0 0 0 0 0 0 0 0 0 0 0 0 0 0 0 0 0 0 0 0 0 0 0 -0
Wind_Speed_500mb
46 47 43 41 41 43 46 46 44 40 37 35 32 29 26 26 26 26 26 24 31 38 26 11 13 20 18 5 8 8 7 9 12 11 8 4 4 7 10 10 18 21 13 10 35
46 45 47 45 40 39 41 41 41 41 37 34 34 33 26 26 25 33 29 19 22 25 27 25 16 14 11 6 8 7 7 19 18 15 6 2 6 6 9 12 18 25 30 20 27
51 49 46 48 44 40 40 39 37 37 32 30 31 30 23 16 18 27 32 30 29 26 29 21 13 11 12 8 9 7 11 4 11 15 7 2 6 6 9 5 26 33 41 29 36
57 54 49 46 47 45 41 40 35 33 34 29 23 24 21 13 12 7 21 32 36 32 30 26 19 12 9 9 9 6 17 9 7 7 7 8 2 8 21 30 18 21 38 40 45
68 60 54 51 50 46 43 40 36 33 33 31 23 24 22 18 20 10 10 7 23 32 29 29 26 16 10 11 7 7 9 9 6 14 16 17 21 18 22 31 37 21 31 46 51
76 69 61 57 55 50 43 41 36 33 33 34 29 24 29 14 20 32 18 4 9 22 23 24 15 23 7 7 11 5 9 30 21 22 21 11 21 5 25 26 29 34 33 42 54
81 77 69 60 58 54 47 40 35 34 36 34 31 30 34 42 11 24 33 23 11 22 20 22 14 16 10 2 5 2 7 14 10 11 12 11 15 18 61 52 50 39 41 45 54
87 81 76 69 63 58 54 43 35 33 37 36 35 34 23 31 45 16 22 23 22 18 19 19 20 12 6 8 4 7 3 10 2 15 12 20 26 9 45 58 61 59 54 54 58
68 70 80 77 67 62 59 48 35 32 38 40 40 29 13 18 35 45 14 21 23 20 18 20 21 9 8 6 4 7 7 12 11 23 9 17 2 8 30 36 46 54 59 64 65
82 70 80 85 75 67 61 47 35 34 39 37 33 18 23 23 28 44 30 22 24 28 20 16 12 6 6 14 19 15 9 3 7 9 6 13 18 13 32 37 44 54 68 71 75
83 79 87 82 80 70 65 52 37 18 49 22 19 15 10 33 33 55 45 36 27 30 13 16 11 24 27 23 12 6 1 5 9 8 9 16 29 18 45 57 51 69 77 73 74
86 88 77 78 84 74 80 78 71 24 23 40 12 49 8 33 22 44 51 38 31 23 14 9 34 15 10 16 23 26 27 18 6 9 5 15 46 36 29 37 58 68 66 82 86
78 92 87 81 81 81 96 93 68 33 13 34 30 41 17 37 18 40 58 31 18 27 25 20 3 27 17 18 28 38 42 34 27 11 12 14 48 35 18 58 72 83 70 76 87
64 77 86 79 89 89 98 90 68 39 8 11 29 21 43 25 11 37 78 40 12 31 8 18 26 3 16 29 25 32 14 17 30 12 12 7 23 41 19 25 42 70 62 77 89
81 80 81 93 74 107 94 94 70 24 11 17 25 26 45 38 25 31 60 43 17 17 17 16 17 35 29 12 18 14 8 14 13 23 23 40 17 7 5 22 32 43 67 74 87
69 78 76 89 98 94 91 98 75 11 17 12 23 31 32 38 16 39 55 35 16 10 7 10 6 16 19 27 26 7 4 4 2 10 19 37 24 47 22 43 22 38 76 70 79
86 89 60 93 104 101 105 94 20 15 3 21 23 39 56 30 15 25 41 32 20 20 28 14 28 1 6 10 19 14 11 5 8 11 23 11 23 50 19 21 25 29 57 70 75
93 91 109 53 64 115 111 29 25 22 18 10 20 36 44 26 27 12 36 28 27 5 9 23 10 31 20 30 9 32 34 8 15 11 10 7 22 32 27 52 76 85 85 87 81
70 73 83 74 54 115 82 37 21 37 20 22 38 38 21 21 21 26 16 36 29 21 20 14 15 1 6 9 20 11 25 48 14 6 10 11 18 24 44 46 34 52 67 82 93
78 74 78 83 61 98 33 29 23 18 22 25 18 20 36 46 14 39 32 27 21 44 3 12 6 11 8 12 28 34 9 9 15 14 22 14 15 24 34 38 16 25 50 80 102
77 42 55 72 72 59 22 20 10 13 44 12 14 16 16 31 34 40 33 22 55 24 29 11 9 6 12 19 26 18 31 15 8 19 18 24 19 31 51 51 39 44 73 79 94
66 14 48 85 26 5 16 16 34 15 18 8 12 11 27 32 34 29 37 31 52 44 45 24 5 8 21 3 20 28 38 44 25 23 16 30 43 53 37 16 22 47 70 79 82
28 22 37 92 24 8 10 10 33 18 23 13 8 6 9 28 20 26 20 18 35 42 27 26 11 3 16 6 7 19 32 33 36 32 44 34 33 59 27 26 49 61 78 84 97
26 13 16 57 46 8 21 17 30 33 17 11 11 9 16 21 7 32 15 10 32 50 34 53 10 17 25 9 7 13 41 38 40 29 43 35 63 76 66 38 44 85 82 84 85
26 9 19 13 22 35 16 31 35 21 9 15 8 7 19 12 13 10 12 10 10 42 25 22 14 16 26 17 12 15 20 29 45 51 37 59 53 73 71 42 54 72 86 80 89
24 9 16 11 33 35 25 28 43 26 24 27 17 20 17 18 34 18 33 10 12 9 27 12 8 10 27 17 23 32 40 37 46 53 42 64 69 95 66 57 42 53 56 61 72
48 41 16 24 27 27 25 37 47 46 5 42 30 20 9 10 25 47 28 37 20 18 12 14 11 8 13 7 4 17 40 37 39 47 44 50 89 73 58 50 61 82 82 64 57
Wind_Direction_500mb
247 250 250 248 246 238 235 237 240 242 241 244 247 248 251 257 259 254 258 263 248 245 247 264 261 246 243 263 220 183 89 198 198 171 234 216 209 203 195 189 181 205 224 247 191
242 245 248 249 244 240 240 236 237 239 239 240 244 247 250 254 261 258 254 252 248 246 247 246 254 243 198 210 204 174 178 214 195 188 202 330 233 206 176 167 214 228 227 224 200
241 239 241 242 246 242 243 241 235 233 234 238 238 242 244 248 273 265 256 247 243 234 230 224 219 213 197 206 201 179 217 196 231 190 153 234 316 229 174 198 226 231 228 218 200
242 240 238 236 240 242 241 241 236 230 226 226 236 233 224 221 215 196 257 234 232 220 219 212 199 176 170 196 213 225 263 232 336 336 279 176 162 246 232 255 251 271 249 226 206
240 239 239 232 233 238 244 243 238 228 220 221 225 219 204 215 237 212 19 229 227 206 207 207 200 191 185 191 188 194 272 278 212 286 307 303 252 232 259 272 263 263 236 233 226
237 237 236 233 231 231 236 241 236 227 212 213 216 213 212 225 245 235 247 323 196 190 191 192 210 208 231 203 194 175 253 274 285 273 263 280 273 236 258 268 274 259 250 239 235
237 235 234 234 230 226 230 234 233 222 209 204 210 217 221 229 252 236 236 245 210 186 188 185 191 188 190 158 198 90 297 314 229 232 230 241 271 192 253 257 257 260 247 242 241
238 231 234 232 228 224 226 228 229 222 209 201 208 210 225 243 235 239 229 227 217 196 202 207 215 225 210 130 71 155 150 259 52 150 231 176 254 243 246 244 248 248 248 244 240
236 237 233 230 227 221 220 221 224 215 205 199 206 199 232 237 222 218 210 210 196 178 185 179 187 197 175 124 310 210 246 213 295 203 184 188 153 294 242 246 246 249 245 247 248
235 239 230 225 223 218 215 213 202 199 194 197 205 199 227 222 218 200 190 186 178 190 177 182 191 183 191 190 216 215 226 297 227 334 277 251 238 277 253 267 259 257 255 248 245
235 233 224 219 219 214 205 188 177 186 189 189 203 203 271 208 205 192 183 178 181 184 181 185 202 213 206 226 248 99 86 226 348 312 292 266 279 246 251 262 260 257 253 253 249
231 232 231 226 221 211 204 191 188 202 183 199 207 200 237 183 178 202 190 185 188 199 146 176 229 214 212 222 237 246 253 264 274 266 287 308 281 274 228 250 256 255 246 248 255
229 227 226 226 216 207 205 202 192 163 141 213 208 206 180 188 197 195 190 188 189 192 197 200 175 166 183 210 232 238 242 250 260 322 281 319 288 269 236 234 252 256 251 251 251
228 222 221 221 215 197 200 200 190 175 106 206 199 235 207 189 247 206 196 179 197 205 160 246 241 97 207 215 201 240 213 248 252 275 263 164 281 277 275 250 232 252 252 241 245
228 220 214 208 205 198 199 202 184 168 198 188 172 188 186 177 148 192 189 194 185 176 166 214 186 212 228 213 183 240 237 198 193 227 271 254 273 294 24 265 247 240 249 242 249
234 221 209 211 210 204 190 190 172 150 217 175 151 170 162 185 193 155 177 190 191 176 286 208 210 176 211 210 204 72 239 306 167 225 235 239 205 279 240 253 252 244 250 250 252
235 223 214 201 212 204 192 170 188 196 243 170 183 175 181 175 156 177 177 194 179 183 202 176 217 278 200 167 200 184 167 251 230 210 242 167 190 243 262 252 269 259 257 260 255
227 226 220 210 212 176 169 173 204 146 191 151 159 169 187 170 188 176 183 194 214 141 130 212 290 197 182 210 173 203 205 190 202 201 248 150 214 238 264 256 255 257 259 267 263
216 226 221 217 204 186 175 197 180 163 172 132 136 158 176 188 184 178 196 209 210 186 180 178 247 324 213 159 194 179 208 222 289 275 289 243 277 293 276 268 263 258 259 261 262
206 216 216 210 206 182 197 201 157 188 133 142 146 169 181 179 143 186 186 210 216 203 201 199 278 204 156 125 216 209 130 192 207 241 247 242 243 249 274 272 282 268 260 261 264
201 207 218 208 205 195 209 194 152 209 151 194 132 139 176 177 182 186 190 217 205 185 183 168 158 307 131 207 189 197 235 242 239 231 246 256 253 242 255 264 270 265 265 264 267
195 204 191 198 199 175 213 161 167 184 181 118 103 101 172 169 178 195 207 198 193 170 197 188 126 200 217 270 192 215 216 214 221 226 240 255 257 268 262 275 300 294 285 281 276
192 179 197 191 208 172 129 163 178 149 174 143 123 146 182 162 178 208 188 215 176 182 181 164 216 337 328 294 239 209 226 232 232 254 251 257 267 266 262 268 279 280 280 278 284
160 178 210 195 198 172 170 178 169 180 162 128 119 98 114 165 236 188 181 196 187 185 183 165 169 198 216 177 122 190 229 227 229 243 251 246 254 264 263 266 275 278 288 293 292
211 193 182 184 185 203 190 161 174 161 158 159 79 167 152 149 172 175 145 135 148 183 168 176 211 202 251 274 298 243 245 237 234 240 240 256 247 259 264 261 266 274 276 285 293
188 161 163 170 159 191 202 188 180 167 165 191 143 195 180 169 196 169 168 156 162 172 187 192 249 190 263 259 240 258 261 252 242 251 251 255 267 251 272 271 276 281 288 292 300
198 203 183 167 175 179 203 196 192 175 230 204 177 147 157 182 145 153 171 161 163 149 150 151 162 145 263 164 224 277 239 239 247 240 244 248 249 266 264 259 258 265 268 272 297
Wind_Speed_850mb
46 47 43 41 41 43 46 46 44 40 37 35 32 29 26 26 26 26 26 24 31 38 26 11 13 20 18 5 8 8 7 9 12 11 8 4 4 7 10 10 18 21 13 10 35
46 45 47 45 40 39 41 41 41 41 37 34 34 33 26 26 25 33 29 19 22 25 27 25 16 14 11 6 8 7 7 19 18 15 6 2 6 6 9 12 18 25 30 20 27
51 49 46 48 44 40 40 39 37 37 32 30 31 30 23 16 18 27 32 30 29 26 29 21 13 11 12 8 9 7 11 4 11 15 7 2 6 6 9 5 26 33 41 29 36
57 54 49 46 47 45 41 40 35 33 34 29 23 24 21 13 12 7 21 32 36 32 30 26 19 12 9 9 9 6 17 9 7 7 7 8 2 8 21 30 18 21 38 40 45
68 60 54 51 50 46 43 40 36 33 33 31 23 24 22 18 20 10 10 7 23 32 29 29 26 16 10 11 7 7 9 9 6 14 16 17 21 18 22 31 37 21 31 46 51
76 69 61 57 55 50 43 41 36 33 33 34 29 24 29 14 20 32 18 4 9 22 23 24 15 23 7 7 11 5 9 30 21 22 21 11 21 5 25 26 29 34 33 42 54
81 77 69 60 58 54 47 40 35 34 36 34 31 30 34 42 11 24 33 23 11 22 20 22 14 16 10 2 5 2 7 14 10 11 12 11 15 18 61 52 50 39 41 45 54
87 81 76 69 63 58 54 43 35 33 37 36 35 34 23 31 45 16 22 23 22 18 19 19 20 12 6 8 4 7 3 10 2 15 12 20 26 9 45 58 61 59 54 54 58
68 70 80 77 67 62 59 48 35 32 38 40 40 29 13 18 35 45 14 21 23 20 18 20 21 9 8 6 4 7 7 12 11 23 9 17 2 8 30 36 46 54 59 64 65
82 70 80 85 75 67 61 47 35 34 39 37 33 18 23 23 28 44 30 22 24 28 20 16 12 6 6 14 19 15 9 3 7 9 6 13 18 13 32 37 44 54 68 71 75
83 79 87 82 80 70 65 52 37 18 49 22 19 15 10 33 33 55 45 36 27 30 13 16 11 24 27 23 12 6 1 5 9 8 9 16 29 18 45 57 51 69 77 73 74
86 88 77 78 84 74 80 78 71 24 23 40 12 49 8 33 22 44 51 38 31 23 14 9 34 15 10 16 23 26 27 18 6 9 5 15 46 36 29 37 58 68 66 82 86
78 92 87 81 81 81 96 93 68 33 13 34 30 41 17 37 18 40 58 31 18 27 25 20 3 27 17 18 28 38 42 34 27 11 12 14 48 35 18 58 72 83 70 76 87
64 77 86 79 89 89 98 90 68 39 8 11 29 21 43 25 11 37 78 40 12 31 8 18 26 3 16 29 25 32 14 17 30 12 12 7 23 41 19 25 42 70 62 77 89
81 80 81 93 74 107 94 94 70 24 11 17 25 26 45 38 25 31 60 43 17 17 17 16 17 35 29 12 18 14 8 14 13 23 23 40 17 7 5 22 32 43 67 74 87
69 78 76 89 98 94 91 98 75 11 17 12 23 31 32 38 16 39 55 35 16 10 7 10 6 16 19 27 26 7 4 4 2 10 19 37 24 47 22 43 22 38 76 70 79
86 89 60 93 104 101 105 94 20 15 3 21 23 39 56 30 15 25 41 32 20 20 28 14 28 1 6 10 19 14 11 5 8 11 23 11 23 50 19 21 25 29 57 70 75
93 91 109 53 64 115 111 29 25 22 18 10 20 36 44 26 27 12 36 28 27 5 9 23 10 31 20 30 9 32 34 8 15 11 10 7 22 32 27 52 76 85 85 87 81
70 73 83 74 54 115 82 37 21 37 20 22 38 38 21 21 21 26 16 36 29 21 20 14 15 1 6 9 20 11 25 48 14 6 10 11 18 24 44 46 34 52 67 82 93
78 74 78 83 61 98 33 29 23 18 22 25 18 20 36 46 14 39 32 27 21 44 3 12 6 11 8 12 28 34 9 9 15 14 22 14 15 24 34 38 16 25 50 80 102
77 42 55 72 72 59 22 20 10 13 44 12 14 16 16 31 34 40 33 22 55 24 29 11 9 6 12 19 26 18 31 15 8 19 18 24 19 31 51 51 39 44 73 79 94
66 14 48 85 26 5 16 16 34 15 18 8 12 11 27 32 34 29 37 31 52 44 45 24 5 8 21 3 20 28 38 44 25 23 16 30 43 53 37 16 22 47 70 79 82
28 22 37 92 24 8 10 10 33 18 23 13 8 6 9 28 20 26 20 18 35 42 27 26 11 3 16 6 7 19 32 33 36 32 44 34 33 59 27 26 49 61 78 84 97
26 13 16 57 46 8 21 17 30 33 17 11 11 9 16 21 7 32 15 10 32 50 34 53 10 17 25 9 7 13 41 38 40 29 43 35 63 76 66 38 44 85 82 84 85
26 9 19 13 22 35 16 31 35 21 9 15 8 7 19 12 13 10 12 10 10 42 25 22 14 16 26 17 12 15 20 29 45 51 37 59 53 73 71 42 54 72 86 80 89
24 9 16 11 33 35 25 28 43 26 24 27 17 20 17 18 34 18 33 10 12 9 27 12 8 10 27 17 23 32 40 37 46 53 42 64 69 95 66 57 42 53 56 61 72
48 41 16 24 27 27 25 37 47 46 5 42 30 20 9 10 25 47 28 37 20 18 12 14 11 8 13 7 4 17 40 37 39 47 44 50 89 73 58 50 61 82 82 64 57
Wind_Direction_850mb
247 250 250 248 246 238 235 237 240 242 241 244 247 248 251 257 259 254 258 263 248 245 247 264 261 246 243 263 220 183 89 198 198 171 234 216 209 203 195 189 181 205 224 247 191
242 245 248 249 244 240 240 236 237 239 239 240 244 247 250 254 261 258 254 252 248 246 247 246 254 243 198 210 204 174 178 214 195 188 202 330 233 206 176 167 214 228 227 224 200
241 239 241 242 246 242 243 241 235 233 234 238 238 242 244 248 273 265 256 247 243 234 230 224 219 213 197 206 201 179 217 196 231 190 153 234 316 229 174 198 226 231 228 218 200
242 240 238 236 240 242 241 241 236 230 226 226 236 233 224 221 215 196 257 234 232 220 219 212 199 176 170 196 213 225 263 232 336 336 279 176 162 246 232 255 251 271 249 226 206
240 239 239 232 233 238 244 243 238 228 220 221 225 219 204 215 237 212 19 229 227 206 207 207 200 191 185 191 188 194 272 278 212 286 307 303 252 232 259 272 263 263 236 233 226
237 237 236 233 231 231 236 241 236 227 212 213 216 213 212 225 245 235 247 323 196 190 191 192 210 208 231 203 194 175 253 274 285 273 263 280 273 236 258 268 274 259 250 239 235
237 235 234 234 230 226 230 234 233 222 209 204 210 217 221 229 252 236 236 245 210 186 188 185 191 188 190 158 198 90 297 314 229 232 230 241 271 192 253 257 257 260 247 242 241
238 231 234 232 228 224 226 228 229 222 209 201 208 210 225 243 235 239 229 227 217 196 202 207 215 225 210 130 71 155 150 259 52 150 231 176 254 243 246 244 248 248 248 244 240
236 237 233 230 227 221 220 221 224 215 205 199 206 199 232 237 222 218 210 210 196 178 185 179 187 197 175 124 310 210 246 213 295 203 184 188 153 294 242 246 246 249 245 247 248
235 239 230 225 223 218 215 213 202 199 194 197 205 199 227 222 218 200 190 186 178 190 177 182 191 183 191 190 216 215 226 297 227 334 277 251 238 277 253 267 259 257 255 248 245
235 233 224 219 219 214 205 188 177 186 189 189 203 203 271 208 205 192 183 178 181 184 181 185 202 213 206 226 248 99 86 226 348 312 292 266 279 246 251 262 260 257 253 253 249
231 232 231 226 221 211 204 191 188 202 183 199 207 200 237 183 178 202 190 185 188 199 146 176 229 214 212 222 237 246 253 264 274 266 287 308 281 274 228 250 256 255 246 248 255
229 227 226 226 216 207 205 202 192 163 141 213 208 206 180 188 197 195 190 188 189 192 197 200 175 166 183 210 232 238 242 250 260 322 281 319 288 269 236 234 252 256 251 251 251
228 222 221 221 215 197 200 200 190 175 106 206 199 235 207 189 247 206 196 179 197 205 160 246 241 97 207 215 201 240 213 248 252 275 263 164 281 277 275 250 232 252 252 241 245
228 220 214 208 205 198 199 202 184 168 198 188 172 188 186 177 148 192 189 194 185 176 166 214 186 212 228 213 183 240 237 198 193 227 271 254 273 294 24 265 247 240 249 242 249
234 221 209 211 210 204 190 190 172 150 217 175 151 170 162 185 193 155 177 190 191 176 286 208 210 176 211 210 204 72 239 306 167 225 235 239 205 279 240 253 252 244 250 250 252
235 223 214 201 212 204 192 170 188 196 243 170 183 175 181 175 156 177 177 194 179 183 202 176 217 278 200 167 200 184 167 251 230 210 242 167 190 243 262 252 269 259 257 260 255
227 226 220 210 212 176 169 173 204 146 191 151 159 169 187 170 188 176 183 194 214 141 130 212 290 197 182 210 173 203 205 190 202 201 248 150 214 238 264 256 255 257 259 267 263
216 226 221 217 204 186 175 197 180 163 172 132 136 158 176 188 184 178 196 209 210 186 180 178 247 324 213 159 194 179 208 222 289 275 289 243 277 293 276 268 263 258 259 261 262
206 216 216 210 206 182 197 201 157 188 133 142 146 169 181 179 143 186 186 210 216 203 201 199 278 204 156 125 216 209 130 192 207 241 247 242 243 249 274 272 282 268 260 261 264
201 207 218 208 205 195 209 194 152 209 151 194 132 139 176 177 182 186 190 217 205 185 183 168 158 307 131 207 189 197 235 242 239 231 246 256 253 242 255 264 270 265 265 264 267
195 204 191 198 199 175 213 161 167 184 181 118 103 101 172 169 178 195 207 198 193 170 197 188 126 200 217 270 192 215 216 214 221 226 240 255 257 268 262 275 300 294 285 281 276
192 179 197 191 208 172 129 163 178 149 174 143 123 146 182 162 178 208 188 215 176 182 181 164 216 337 328 294 239 209 226 232 232 254 251 257 267 266 262 268 279 280 280 278 284
160 178 210 195 198 172 170 178 169 180 162 128 119 98 114 165 236 188 181 196 187 185 183 165 169 198 216 177 122 190 229 227 229 243 251 246 254 264 263 266 275 278 288 293 292
211 193 182 184 185 203 190 161 174 161 158 159 79 167 152 149 172 175 145 135 148 183 168 176 211 202 251 274 298 243 245 237 234 240 240 256 247 259 264 261 266 274 276 285 293
188 161 163 170 159 191 202 188 180 167 165 191 143 195 180 169 196 169 168 156 162 172 187 192 249 190 263 259 240 258 261 252 242 251 251 255 267 251 272 271 276 281 288 292 300
198 203 183 167 175 179 203 196 192 175 230 204 177 147 157 182 145 153 171 161 163 149 150 151 162 145 263 164 224 277 239 239 247 240 244 248 249 266 264 259 258 265 268 272 297